Theta_e
307 307 308 307 308 296 301 303 298 301 307 303 298 298 299 297 295 293 302 299 302 308 307 310 312 313 313 315 319 321 324 326 330 330 332 334 335 336 338 338 339 342 343 344 344 345 344 345 346 346 349 352 352 354 355 356 357 358 358 358 358 359 359
307 310 309 308 308 308 302 298 302 306 308 306 301 293 298 294 291 295 296 296 297 299 296 313 310 312 312 313 315 319 323 326 326 327 330 333 334 335 338 340 341 342 342 343 343 344 344 344 345 346 350 351 354 354 354 355 356 356 357 357 357 358 359
306 308 309 306 308 309 305 303 309 301 295 295 302 298 290 290 290 292 296 297 298 300 300 308 309 310 312 314 316 318 320 323 324 326 329 332 334 335 336 338 339 340 341 342 343 342 343 344 347 348 348 349 351 352 354 354 355 355 356 356 358 359 359
305 306 306 298 301 305 305 307 304 308 303 300 297 298 299 298 292 291 292 296 294 303 303 306 308 314 315 315 315 317 320 323 324 326 327 329 332 333 334 335 337 339 340 341 342 342 342 343 344 345 345 346 346 349 352 353 354 356 357 357 357 358 358
304 299 303 301 303 300 301 301 301 301 302 305 304 301 298 295 294 294 293 292 298 306 309 307 308 312 318 317 318 319 320 323 325 327 328 330 332 332 333 335 336 337 339 340 341 342 342 343 344 344 344 344 345 347 349 351 353 354 354 355 356 358 358
298 301 305 306 306 306 303 302 301 301 300 297 294 294 300 299 296 292 293 292 301 305 311 311 311 313 316 321 320 320 321 322 325 326 329 332 332 334 334 334 335 336 339 340 341 342 343 342 342 342 342 343 344 345 347 349 350 351 352 353 356 357 358
300 302 306 309 309 309 307 305 303 304 303 302 298 292 295 298 299 300 300 295 298 311 313 316 316 316 316 319 321 320 321 323 324 327 327 330 336 335 332 333 333 335 338 339 340 342 343 342 342 342 342 342 343 345 346 348 349 350 351 353 355 358 358
303 304 305 305 305 305 305 306 307 304 301 302 301 300 303 297 298 296 297 294 300 308 318 318 317 322 319 322 320 323 321 322 323 324 326 330 334 338 334 334 332 335 337 341 343 343 343 343 344 343 342 343 343 344 345 347 348 349 351 352 354 357 357
297 299 303 303 303 303 302 303 305 306 305 305 304 306 305 298 299 298 296 292 299 309 318 316 315 313 313 315 316 319 321 324 324 325 329 331 337 338 335 336 336 337 336 338 340 341 343 343 343 344 343 343 342 344 345 345 347 349 351 353 353 354 355
288 288 290 293 297 299 302 303 303 305 304 303 302 298 300 294 302 302 298 297 305 310 313 313 314 314 317 318 318 317 318 322 321 322 325 332 334 338 338 340 339 336 338 340 340 342 343 344 343 343 344 344 342 344 344 345 346 348 350 351 353 353 353
296 296 297 297 299 299 298 300 302 302 304 305 304 303 300 295 303 299 301 303 304 305 308 312 313 315 314 316 321 320 319 321 325 328 329 329 333 335 334 339 340 341 342 340 340 342 342 341 343 343 343 343 343 345 345 345 346 348 351 352 354 354 353
296 296 297 298 298 296 298 298 300 303 302 303 302 300 299 310 300 295 303 310 303 304 310 314 319 318 318 320 321 320 321 324 325 326 329 327 326 331 335 338 340 340 340 340 341 343 342 342 344 343 344 343 345 345 344 345 346 348 350 353 356 355 353
295 296 297 299 298 299 299 300 300 300 302 303 300 301 307 306 300 297 309 312 305 306 307 311 316 321 321 316 320 322 322 318 324 328 326 326 326 330 331 337 340 341 340 342 341 343 343 342 342 343 343 343 345 346 347 347 345 347 351 352 353 352 353
294 295 297 299 298 298 298 298 299 300 301 301 302 302 303 304 305 306 309 312 306 307 308 310 313 321 320 322 321 317 317 315 325 323 325 322 324 326 330 336 338 342 342 343 345 345 344 343 343 342 343 344 344 344 345 345 348 349 353 353 354 353 354
293 295 297 299 298 297 296 298 299 300 301 301 302 302 303 304 303 304 304 311 308 310 316 313 316 324 318 315 314 315 322 322 318 320 320 323 324 325 329 334 337 340 342 343 345 345 345 344 344 343 343 345 344 342 345 346 348 350 350 352 352 353 353
291 295 295 295 297 297 297 298 299 300 300 299 301 301 304 303 302 305 303 303 306 312 315 315 318 315 316 317 321 323 323 320 322 325 327 328 330 328 328 329 332 336 338 341 342 343 342 342 344 345 343 345 344 343 345 346 347 349 349 351 351 354 354
289 293 294 294 295 296 294 296 299 301 302 303 303 305 306 305 305 302 301 302 310 313 317 314 315 314 315 316 316 320 322 329 325 327 331 331 328 328 330 331 333 331 332 337 343 342 342 342 342 343 345 343 345 346 347 347 350 349 349 349 353 353 355
289 292 293 295 293 287 290 302 301 304 302 303 301 301 303 305 306 305 308 309 315 316 315 313 315 314 317 319 325 324 326 330 336 333 333 332 331 331 333 333 332 335 338 337 339 341 345 345 343 343 345 345 348 349 349 352 351 349 349 349 353 354 356
287 291 293 290 286 289 301 302 310 313 314 313 310 306 305 306 307 307 307 308 312 317 316 316 317 317 323 333 326 323 331 337 338 340 338 340 343 343 344 344 341 338 338 341 341 343 343 343 344 344 345 345 348 352 351 351 353 351 351 353 351 354 355
292 289 290 283 287 297 299 301 314 317 313 315 312 305 306 308 308 309 307 309 312 316 317 316 318 321 333 335 338 338 338 338 338 337 338 340 340 340 342 342 343 346 344 339 338 341 343 343 342 343 344 345 348 351 352 350 350 351 352 353 352 355 356
285 289 289 288 296 294 297 300 310 312 309 310 311 305 310 316 315 310 309 311 312 313 315 315 320 324 327 328 332 337 338 338 338 337 339 338 340 339 340 340 341 345 347 346 343 345 345 344 343 343 345 346 349 349 348 347 351 352 353 353 353 355 354
291 287 286 287 287 286 295 311 314 315 316 316 315 310 309 315 320 321 316 310 312 313 314 313 321 327 318 314 319 334 338 338 338 337 337 338 340 339 339 341 343 346 347 348 348 341 343 345 344 347 347 348 352 353 351 350 351 351 350 351 353 355 354
290 287 284 284 284 290 306 309 311 315 317 316 317 308 303 315 316 319 319 321 321 314 316 318 325 318 310 312 318 337 338 338 338 338 338 339 338 339 340 340 341 343 346 348 347 343 344 343 347 350 349 351 352 350 350 346 347 347 349 352 353 354 356
288 288 285 284 289 291 302 311 312 315 318 316 312 297 299 313 316 317 319 320 324 327 322 325 323 316 310 311 320 336 338 337 337 337 337 337 337 339 341 342 343 344 347 351 349 346 346 353 350 351 349 351 351 350 347 348 347 349 351 354 356 358 360
288 288 287 289 291 299 302 307 314 317 317 313 301 295 309 314 316 318 320 322 325 328 327 322 318 322 328 331 338 336 336 335 335 336 336 337 337 338 340 341 343 344 344 344 344 346 348 352 348 348 350 350 351 353 353 351 351 352 355 357 358 359 360
286 288 286 287 292 300 309 315 315 317 307 298 298 312 315 316 316 319 321 321 325 328 328 326 324 332 329 336 336 335 335 335 335 336 336 337 338 340 341 342 342 343 343 344 344 344 348 350 350 348 351 352 354 353 352 351 354 355 357 359 361 361 360
290 289 287 286 283 304 310 316 313 316 303 307 315 315 318 318 318 318 319 320 325 328 327 327 330 331 333 334 335 334 333 333 334 335 336 336 336 337 339 340 341 342 341 341 341 343 346 350 354 352 350 352 352 353 352 357 359 356 357 357 359 359 359
286 286 284 286 296 313 316 314 306 315 317 317 317 316 315 319 317 317 317 321 327 329 329 329 330 331 331 332 332 332 332 333 334 335 336 336 336 337 338 339 340 341 340 340 340 343 345 348 352 357 356 352 352 353 353 355 361 360 357 356 359 358 358
292 289 296 308 307 316 318 318 317 318 318 318 317 317 316 316 318 318 318 319 323 329 330 329 330 328 330 330 331 331 332 332 333 333 334 334 335 335 336 337 339 340 339 339 340 341 343 344 346 349 354 355 354 350 349 353 358 362 361 358 357 357 357
301 302 303 306 309 310 314 317 318 316 316 317 317 316 316 317 317 318 317 320 322 327 330 328 329 329 329 329 330 331 332 332 332 333 334 335 336 336 337 338 339 340 340 340 340 339 340 343 343 344 345 346 344 342 346 349 353 357 362 360 358 357 357
294 290 307 309 311 313 315 316 316 318 318 317 318 317 317 317 317 318 319 321 323 326 329 329 328 328 329 329 330 331 331 332 332 333 333 334 336 336 337 338 340 340 341 339 338 338 338 341 343 343 345 344 344 345 346 348 351 355 359 360 361 359 357
291 292 300 305 310 315 316 316 316 315 317 317 318 319 318 317 318 319 319 321 321 324 325 327 327 328 330 329 329 329 331 331 332 332 333 334 335 337 339 340 341 340 340 339 338 338 338 339 341 341 341 342 344 345 346 347 349 352 352 354 359 360 361
294 297 298 299 302 308 314 316 318 318 318 317 318 317 317 317 318 319 320 320 319 320 320 325 327 326 327 329 329 329 330 331 331 333 333 335 337 338 338 339 340 339 338 338 338 338 338 340 340 340 339 341 341 342 343 346 349 349 348 349 350 350 351
289 291 297 305 300 302 310 314 316 317 319 318 317 317 315 316 316 317 318 319 320 320 320 321 326 326 326 327 329 329 329 330 331 333 334 335 336 337 338 338 339 339 339 339 338 338 338 340 340 339 339 340 340 341 342 344 348 347 347 347 346 348 349
291 298 302 305 309 308 312 316 318 319 319 318 317 316 315 316 317 317 317 318 319 319 319 320 321 324 325 326 327 326 326 327 329 331 334 334 334 335 336 336 336 337 338 339 339 338 339 340 340 341 340 341 342 343 342 342 342 342 344 341 341 343 343
299 301 303 306 304 302 308 314 317 318 321 319 317 319 320 319 318 318 318 318 318 318 319 320 321 322 323 323 324 324 324 326 328 330 332 333 334 335 336 336 336 336 336 337 337 338 339 340 340 341 341 342 343 343 345 344 343 341 340 339 339 339 340
298 304 306 306 307 309 313 315 318 320 321 320 318 318 320 320 319 319 318 319 319 318 318 318 319 322 322 321 321 321 321 323 326 327 329 329 330 331 332 333 334 335 335 337 338 339 339 339 339 339 340 341 342 342 344 344 343 341 339 339 337 339 339
Wind_Speed
16 17 15 12 16 11 10 11 15 14 5 9 5 1 2 2 1 9 5 7 9 4 10 11 10 9 11 11 13 13 14 14 12 12 13 16 18 19 19 20 20 21 19 18 19 19 19 20 19 20 19 19 20 18 18 19 19 18 19 19 19 17 17
12 14 17 14 19 5 10 12 13 8 6 8 8 9 3 7 9 5 5 12 11 5 10 6 15 13 13 12 14 15 15 13 12 13 13 15 18 20 22 22 20 19 20 21 21 19 21 21 22 21 20 19 18 18 19 20 19 20 20 19 19 18 18
13 4 13 12 12 14 13 11 11 11 8 11 9 5 12 10 11 7 7 9 13 12 11 3 7 12 11 12 12 14 14 14 14 14 15 15 15 14 15 18 17 18 19 20 21 23 24 23 21 19 20 19 18 18 19 21 22 23 22 18 18 15 16
11 10 13 15 12 6 4 6 11 6 3 9 10 12 1 6 9 3 8 4 15 12 13 10 6 7 11 11 11 13 15 15 15 13 13 14 14 14 16 18 19 21 22 24 24 23 23 23 21 20 22 19 22 21 20 20 20 17 17 18 17 17 18
13 11 11 14 14 15 11 10 11 6 7 2 7 2 10 7 8 8 8 10 7 5 9 12 15 11 10 11 10 10 12 13 15 14 13 12 13 14 16 17 19 21 22 23 23 23 22 21 19 19 19 21 22 20 21 22 21 21 21 20 18 17 16
11 7 12 16 18 18 15 15 14 14 12 9 11 10 5 10 7 4 6 14 6 2 4 10 12 14 12 11 12 11 13 14 13 12 13 12 11 14 16 17 18 18 19 20 22 20 17 17 18 20 19 19 20 21 21 21 21 20 22 20 18 17 17
7 4 13 17 18 21 19 16 14 15 13 10 9 9 10 7 10 1 5 8 12 6 8 8 9 9 12 11 11 12 11 13 13 12 13 11 6 7 11 14 15 17 18 19 19 18 18 20 18 21 20 19 20 22 21 20 21 22 22 21 19 17 17
1 1 1 4 6 4 12 15 15 15 16 16 14 11 5 10 6 7 6 10 7 1 3 8 10 9 9 5 5 10 11 9 10 11 12 11 9 8 8 11 13 13 13 12 11 14 15 17 16 18 17 17 18 19 20 20 23 23 22 19 18 17 17
5 7 7 7 3 5 10 11 13 14 15 18 17 4 3 9 14 15 10 17 7 4 3 2 4 4 6 8 8 7 9 7 7 8 7 7 5 3 8 11 11 10 11 14 15 16 17 17 16 16 16 16 18 18 19 20 20 21 20 18 18 19 20
15 16 17 15 12 8 2 5 11 15 19 19 15 14 6 10 11 16 14 15 2 4 0 3 5 4 6 9 8 4 6 7 7 6 7 7 7 7 8 8 9 13 14 14 14 16 15 15 16 17 17 17 18 17 19 20 19 19 19 18 18 18 19
2 2 4 3 4 4 6 3 5 8 16 20 18 10 10 13 7 13 17 11 5 5 7 4 5 5 8 9 9 7 5 7 7 6 4 4 5 5 9 10 10 10 10 15 17 17 15 17 17 16 16 17 17 16 18 19 17 18 17 17 16 17 19
3 6 6 6 5 7 8 9 8 7 9 16 20 18 12 10 7 14 15 9 13 11 3 5 6 7 8 8 8 6 6 7 6 3 3 5 6 5 4 7 10 13 15 16 15 15 16 15 15 15 15 17 17 17 18 19 18 17 15 16 14 15 17
5 7 10 7 5 6 7 9 11 13 10 9 18 20 8 14 15 16 5 8 10 12 14 6 7 8 8 11 11 7 3 3 3 4 4 5 7 6 8 10 11 12 13 15 15 13 14 15 16 17 16 16 16 14 15 15 18 19 17 16 16 18 18
7 7 9 7 4 5 8 10 12 14 14 15 10 11 15 16 14 13 12 10 15 14 15 17 12 7 7 2 4 3 4 5 2 2 4 7 6 7 9 9 10 11 12 13 12 12 12 15 16 17 15 16 17 17 17 17 17 16 15 15 15 16 17
6 7 7 7 8 8 11 11 12 13 13 13 12 12 14 15 18 20 19 9 13 10 9 15 13 6 2 2 6 7 5 3 3 4 6 6 6 6 8 8 10 10 11 11 10 11 13 16 18 18 17 17 16 19 16 16 18 15 17 16 17 18 19
7 3 6 9 12 15 14 13 12 11 13 15 13 12 10 13 12 11 17 15 12 4 4 7 4 2 5 7 8 8 7 6 5 5 6 6 7 6 6 6 7 8 11 12 13 15 17 18 17 15 17 16 16 18 17 17 17 16 17 16 18 17 18
7 6 8 9 14 12 12 15 13 13 15 16 13 13 10 14 11 14 16 12 1 5 7 9 10 10 10 10 8 8 7 5 6 8 8 6 4 5 6 7 8 10 12 13 14 15 14 15 16 18 16 15 17 16 16 18 14 16 18 19 17 17 15
6 9 10 10 7 10 9 4 2 2 10 10 14 17 17 15 14 12 6 9 5 9 9 12 11 12 12 11 11 8 7 6 7 8 6 5 4 5 6 7 9 10 9 10 11 14 13 14 17 16 15 15 13 12 12 9 13 16 18 17 15 16 14
6 6 9 7 12 11 6 6 3 4 10 9 12 16 17 18 17 16 16 14 10 9 10 13 14 16 14 1 3 6 5 4 5 5 3 3 3 4 5 5 6 7 9 10 11 11 12 14 12 12 12 14 12 10 10 12 12 13 14 15 16 14 14
5 4 6 7 9 9 16 13 6 6 5 3 5 11 12 14 16 13 16 14 12 11 10 12 12 8 2 2 1 2 3 4 5 5 5 4 4 5 4 6 6 7 8 9 11 11 10 11 13 14 14 13 12 11 11 12 12 13 12 12 13 11 12
8 6 10 15 12 18 18 9 5 6 5 6 5 5 2 6 6 8 11 11 15 14 9 9 4 2 2 4 4 4 5 5 5 5 4 3 4 5 6 6 8 8 8 9 9 7 9 11 12 14 12 12 11 11 12 14 13 13 12 12 12 13 14
9 10 10 11 10 12 6 6 1 3 4 4 3 2 7 0 6 8 8 12 13 14 8 6 6 6 5 9 8 8 8 6 5 4 3 3 3 4 5 6 7 7 7 7 7 7 8 11 12 10 11 11 11 10 11 11 13 14 14 15 15 15 15
10 12 13 12 11 7 4 6 2 4 2 2 3 3 7 3 8 9 9 10 10 12 7 8 8 7 8 9 8 7 9 7 4 4 2 0 1 3 4 5 7 7 7 6 6 7 7 9 8 9 11 12 12 12 13 15 15 15 16 15 15 15 14
11 11 12 14 7 8 0 2 1 3 2 4 4 7 4 4 11 10 11 11 12 11 10 4 9 11 10 9 6 9 9 7 5 4 3 2 2 3 4 5 4 5 6 3 4 4 4 3 4 9 11 11 13 12 13 13 14 15 15 14 12 11 11
14 14 12 10 10 6 4 5 2 2 3 3 6 10 2 4 7 10 11 12 12 11 10 7 10 8 3 3 8 11 10 8 6 4 2 2 1 3 5 6 6 6 7 7 7 6 4 2 3 7 9 10 10 9 9 10 12 10 8 7 9 9 10
13 12 13 12 9 4 8 4 3 1 2 7 9 3 4 9 11 8 10 13 12 11 12 9 8 4 2 5 8 10 9 7 6 5 4 4 3 3 5 7 7 7 8 9 9 9 6 5 3 6 7 8 7 7 8 9 8 7 6 8 8 9 11
9 10 11 8 12 4 8 6 2 5 7 3 3 6 8 4 7 10 9 9 11 11 11 9 3 1 2 5 7 8 9 8 7 6 5 5 5 5 7 9 9 8 8 10 10 9 7 7 5 5 7 7 6 6 6 4 3 2 4 5 6 8 8
10 11 13 8 4 5 7 8 7 5 4 3 1 2 7 3 4 7 8 8 9 10 9 5 5 5 6 5 6 7 8 7 6 6 5 6 6 7 8 9 8 9 10 9 10 10 10 10 9 7 6 7 7 7 6 2 1 2 3 5 6 7 8
8 8 6 5 12 9 5 6 3 4 4 2 3 4 5 5 3 5 6 8 10 9 5 4 5 7 6 7 6 6 7 8 7 6 6 6 7 7 8 8 9 9 10 11 11 12 11 12 11 10 9 9 10 9 5 3 2 2 2 5 6 7 8
10 15 16 14 12 13 11 4 4 5 5 4 3 2 2 2 3 4 5 7 8 8 3 5 5 6 8 8 7 6 7 7 7 7 7 8 8 9 9 9 10 11 11 12 13 13 13 12 12 11 10 10 11 6 4 4 3 3 2 3 4 5 6
9 7 1 10 11 11 13 6 4 3 4 4 3 2 3 4 5 5 4 4 6 5 2 3 5 7 8 9 8 6 6 7 7 8 8 8 9 9 10 9 10 10 11 12 12 13 13 11 11 10 10 9 9 7 5 4 4 3 3 3 4 3 3
8 10 13 12 10 9 13 8 6 7 6 6 5 6 7 6 5 3 4 5 7 6 6 4 5 6 7 9 8 6 5 6 7 8 9 9 9 9 9 10 10 12 12 12 12 12 12 10 10 11 11 10 9 7 7 6 5 6 6 6 5 4 3
9 14 17 15 14 17 14 11 7 5 8 8 10 12 12 10 6 5 6 8 7 6 6 4 4 5 6 9 9 8 7 7 7 8 9 9 10 10 11 10 10 11 12 13 13 13 12 11 10 11 12 11 10 9 8 7 6 7 8 9 9 9 7
12 11 10 2 7 6 9 10 8 8 8 11 14 14 13 10 7 6 7 7 7 6 7 7 5 5 6 8 9 10 8 8 8 9 8 9 10 10 10 10 13 14 13 14 14 14 12 11 11 12 12 12 11 10 9 9 8 9 9 9 9 7 5
12 11 10 7 8 12 10 7 9 9 6 15 16 14 11 7 6 7 7 9 8 8 8 8 7 6 7 9 11 12 10 8 8 8 8 9 10 10 11 13 14 15 14 15 15 16 13 12 12 12 13 12 11 11 10 10 10 9 8 9 8 6 6
22 20 15 11 7 10 14 14 10 11 4 17 16 13 10 7 8 8 10 9 8 7 7 8 8 7 6 7 10 13 11 9 9 9 9 10 10 11 11 12 13 14 14 14 15 14 12 12 12 13 13 13 12 12 11 10 10 10 10 9 9 8 7
18 12 9 11 11 12 14 17 14 8 10 16 15 13 9 7 7 9 12 10 9 7 7 8 9 8 6 7 9 11 10 9 9 9 9 9 11 12 13 13 14 13 13 13 13 12 13 13 14 13 14 14 13 13 12 12 12 12 11 10 9 8 7
Wind_Direction
176 191 178 177 158 200 174 173 205 217 148 177 216 2 30 49 326 246 161 262 262 278 260 238 246 225 233 222 220 220 222 219 206 203 201 200 202 203 202 204 202 199 195 194 199 199 198 199 196 196 194 188 193 190 188 190 194 193 193 194 197 196 198
200 197 179 177 188 147 128 200 203 115 111 206 216 233 145 223 242 232 173 232 246 242 278 174 199 202 219 217 217 218 221 216 210 214 205 202 203 202 201 200 199 192 194 197 199 201 200 198 197 195 193 192 191 189 191 190 190 193 195 194 195 194 195
183 128 176 180 195 152 187 203 145 166 169 195 190 214 231 215 228 246 229 236 252 230 231 143 187 205 212 219 214 214 215 219 220 219 212 208 207 204 198 200 198 197 198 198 198 202 202 201 198 193 191 192 190 192 193 193 194 196 193 192 194 195 195
145 169 181 200 180 209 8 119 170 189 184 201 168 202 339 203 236 226 250 178 258 207 227 212 247 222 222 217 217 221 217 208 212 218 217 204 195 196 198 200 200 198 200 200 199 200 201 201 198 198 195 194 195 195 193 196 198 195 192 192 191 192 194
146 196 192 199 182 186 192 197 199 158 213 23 199 155 209 201 224 224 259 266 259 186 166 197 220 232 233 236 227 223 228 227 220 216 214 204 193 195 198 199 200 200 201 202 203 203 204 203 198 196 195 194 195 194 194 195 191 190 191 193 191 194 193
202 193 175 202 198 197 197 196 205 186 181 173 184 210 169 219 208 217 195 250 255 173 159 184 202 210 219 218 224 230 229 229 229 228 228 221 201 195 197 199 199 198 199 201 203 201 197 197 198 195 198 195 194 195 197 195 196 194 196 195 194 192 193
209 162 189 210 209 203 204 196 205 194 199 185 196 217 191 190 221 152 241 292 281 131 169 197 197 210 220 224 210 222 229 231 233 233 234 238 226 215 204 198 199 199 199 199 198 193 187 192 194 195 195 195 193 194 194 192 193 196 196 195 193 188 189
208 258 357 284 293 279 227 216 209 194 201 195 210 219 141 192 167 194 209 242 248 71 184 195 198 209 221 231 213 226 235 233 234 236 238 241 225 206 198 198 200 201 198 188 192 194 197 201 198 193 191 192 194 193 192 192 194 196 194 194 190 186 189
228 241 231 225 92 212 225 219 212 213 206 204 212 171 94 216 201 199 194 234 228 153 149 275 279 278 259 244 231 221 242 246 237 243 245 244 236 187 199 197 196 186 185 184 198 199 199 199 195 195 193 191 191 193 192 195 198 195 192 191 189 188 191
198 201 207 212 204 197 306 280 231 211 208 204 203 209 166 221 193 199 213 232 127 95 247 215 241 261 285 270 262 235 238 262 253 228 231 237 224 201 197 193 180 189 191 195 200 200 199 196 195 196 198 193 194 192 193 197 197 193 193 190 189 187 190
254 11 351 331 314 304 229 205 285 252 221 215 212 214 208 216 132 211 227 232 262 184 196 170 227 236 240 256 252 239 245 258 259 258 254 234 239 211 201 194 195 190 194 203 204 201 197 196 193 192 192 191 192 190 192 196 195 190 187 183 182 182 188
8 319 303 312 315 276 276 281 280 284 251 224 217 213 220 102 156 233 227 207 238 236 213 196 207 218 233 253 272 282 257 235 239 256 247 252 249 232 195 204 198 197 202 206 205 200 196 194 190 191 190 190 188 188 191 192 191 186 181 181 175 181 188
329 296 296 306 287 264 266 270 272 271 280 274 236 228 191 169 214 236 121 176 222 238 236 230 234 218 216 230 239 249 303 317 237 208 229 239 240 225 205 199 202 204 206 209 210 201 198 195 191 193 192 194 194 195 194 186 191 193 186 184 187 190 191
311 306 300 300 287 289 282 269 270 268 268 266 272 270 246 219 232 241 237 174 219 218 229 233 230 224 237 280 342 308 249 247 249 252 240 241 238 232 229 219 209 210 211 210 209 201 195 195 196 195 194 195 194 193 192 189 191 193 180 184 186 190 193
305 307 301 291 304 307 286 284 268 264 264 266 259 254 256 256 245 238 242 190 227 211 213 233 230 203 147 267 264 256 256 266 246 243 248 249 251 239 232 233 224 216 215 214 209 201 199 197 197 197 197 197 195 197 189 187 193 188 183 186 188 191 200
297 310 322 318 318 309 290 274 267 255 251 254 245 237 234 237 236 238 248 243 232 187 248 270 284 161 212 221 231 238 240 238 226 240 252 248 255 274 282 268 254 241 229 217 209 207 203 201 197 195 198 196 192 198 190 188 188 182 183 185 190 194 199
280 304 315 326 316 306 282 256 256 260 250 249 252 254 242 237 235 232 231 243 302 209 211 239 248 241 228 229 234 241 241 228 233 235 243 251 256 270 274 265 251 241 235 227 215 212 207 197 196 201 196 194 198 199 192 194 177 178 185 189 191 197 195
288 310 311 314 296 255 243 59 304 293 273 279 255 246 240 238 227 247 259 258 219 215 203 222 233 237 240 228 232 220 227 217 210 232 237 253 263 261 260 265 266 258 240 239 230 217 208 201 201 199 192 194 200 197 199 182 181 189 190 195 191 195 188
280 296 300 280 252 238 345 308 78 287 270 270 264 263 250 243 235 241 251 247 242 229 210 215 228 237 243 285 220 196 208 228 236 233 249 251 248 257 257 263 271 270 264 245 234 218 210 205 197 191 191 196 184 173 172 181 190 193 197 198 197 193 188
267 285 237 241 211 358 315 321 28 4 185 351 294 265 246 246 242 225 237 235 240 241 225 222 234 256 8 79 101 186 192 209 225 224 235 240 260 265 271 274 269 265 265 256 236 218 205 192 198 195 194 189 177 175 170 179 185 193 196 199 200 191 190
239 225 238 250 320 322 296 306 42 358 10 347 359 305 343 5 330 273 250 233 231 235 212 221 227 167 208 253 224 193 206 199 211 231 243 261 269 284 285 284 284 284 277 267 264 241 200 193 192 193 184 176 171 169 175 186 182 185 187 194 196 191 194
206 240 261 270 261 253 250 127 110 261 264 279 272 222 282 250 4 359 306 261 246 240 210 194 178 153 211 242 246 189 190 186 188 195 216 248 275 295 301 300 296 294 288 275 242 237 215 197 195 181 172 166 162 168 178 179 180 187 191 198 196 193 196
200 216 231 236 242 235 85 150 299 312 297 227 182 196 255 106 354 351 342 311 293 279 244 192 156 174 214 230 240 155 162 167 173 167 155 128 323 336 326 326 326 322 315 281 253 197 203 197 185 170 170 165 167 179 181 186 188 191 196 199 194 196 196
230 225 223 236 230 230 152 149 114 324 355 156 209 274 270 34 344 330 329 313 304 306 314 221 193 192 217 223 233 136 146 148 146 163 148 110 34 13 9 19 11 8 1 50 78 112 138 129 145 175 168 168 178 179 184 184 188 195 199 197 192 194 188
227 230 243 261 253 225 233 258 103 329 159 191 241 239 29 313 328 324 329 312 305 300 288 254 223 218 317 28 95 122 132 142 139 137 134 113 5 19 26 33 41 55 55 56 58 49 37 20 165 172 170 171 178 176 169 182 196 198 186 178 189 198 196
222 224 237 240 265 228 153 199 159 189 193 220 238 27 255 297 321 336 330 322 312 303 279 261 259 7 76 108 114 124 139 136 139 136 138 131 102 65 52 50 55 67 69 67 65 56 42 38 92 159 162 162 161 158 170 192 196 191 171 177 183 185 189
232 240 244 239 243 175 185 132 170 182 225 295 27 312 308 311 323 328 329 312 306 300 290 258 209 149 114 128 130 131 127 132 133 138 134 120 88 71 67 62 55 66 70 66 61 58 52 44 48 110 147 142 137 143 150 100 56 107 171 184 182 191 193
225 216 221 224 282 94 152 174 227 172 241 17 331 305 292 329 334 333 325 308 312 309 281 241 156 153 141 129 135 129 124 123 130 128 126 109 93 82 75 75 73 68 70 67 64 56 52 53 48 46 107 113 115 109 81 43 59 101 167 183 183 191 196
247 257 264 331 329 310 231 192 197 197 178 174 184 234 273 302 350 342 315 310 324 313 290 212 162 153 150 143 147 139 134 129 126 123 112 104 93 91 88 85 81 77 74 72 73 67 59 56 56 56 57 84 89 87 69 54 43 71 138 178 187 198 198
275 272 263 276 275 281 277 222 182 177 162 156 177 214 254 353 338 345 313 322 329 321 263 184 166 151 146 138 137 135 132 123 119 120 114 106 104 103 104 100 95 90 83 76 72 71 66 65 68 65 66 72 77 68 57 57 67 67 115 152 182 203 208
300 276 255 231 226 250 259 229 162 154 169 137 142 135 67 18 355 339 311 339 5 357 301 175 148 143 138 128 124 125 127 125 120 114 107 102 101 104 102 105 106 99 91 83 78 77 72 65 64 59 58 59 66 70 68 66 66 70 99 108 133 152 181
248 260 286 313 310 272 251 246 184 167 146 124 111 87 64 34 4 341 11 33 31 11 41 68 121 126 115 110 106 113 122 120 116 113 110 106 99 97 102 104 103 99 96 92 89 84 78 73 68 67 63 54 43 43 55 56 62 74 73 70 74 75 96
285 289 285 277 282 268 252 242 235 184 150 130 91 70 50 32 9 35 57 55 48 25 11 27 80 99 96 107 111 110 104 100 98 98 101 100 98 95 91 88 90 92 92 88 84 81 78 76 74 72 67 62 57 49 48 51 72 83 83 83 78 75 70
262 244 256 153 231 226 225 225 205 174 159 107 85 69 54 31 7 8 32 48 48 36 21 21 65 76 84 86 95 92 83 77 83 89 88 88 89 88 86 86 86 85 83 84 82 78 76 74 73 72 69 67 62 58 59 60 68 84 89 90 87 84 79
256 247 238 247 278 304 282 232 200 199 154 86 75 71 62 35 26 37 40 47 33 23 19 22 29 53 75 81 88 86 82 73 67 69 75 80 80 80 81 82 79 79 77 76 76 75 74 73 72 71 70 68 67 67 68 72 79 82 83 89 86 74 67
257 260 271 286 292 268 283 272 233 238 143 90 85 77 78 66 41 49 66 65 52 23 5 30 31 23 37 64 78 86 76 64 57 63 65 69 75 80 82 82 81 77 74 72 72 73 72 70 69 66 63 58 57 60 63 71 76 81 84 86 87 83 79
251 257 258 263 260 275 275 266 241 224 104 100 93 85 73 77 62 58 62 62 64 49 18 20 24 18 41 49 60 67 64 57 53 57 51 53 60 70 73 73 72 73 73 73 71 70 69 65 62 58 56 50 46 46 48 54 62 66 66 69 73 72 76